Погода в Павло-Антоновке

Россия / Оренбургская область     52°24′42″N   52°42′38″E
темп.,
°C
ветер,
м/с
пор.,
м/с
влажн.,
%
обл.,
%
осадки,
мм/ч
давл.,
гПа
погр.,
м
25 февраля, чт
чт2523:00−25сз511922 0.0 1032243
02:00−28сз34961 0.0 103340
05:00−29сз34970 0.0 103444
08:00−29зсз33972 0.0 103629
11:00−26з11921 0.0 103679
14:00−21ююз238557 0.0 1035232
17:00−20ююз468878 0.0 1033286
20:00−21ю4990100 0.0 1031309
26 февраля, пт
пт2623:00−20ю61097100 0.3 1029377
02:00−19ю61296100 0.8 1026459
05:00−17ююв61294100 1.3 1025508
08:00−16ююв7129399 0.2 1022495
11:00−14ююв71192100 0.5 1022545
14:00−12ююв6108999 0.2 1021579
17:00−12ююв699099 0.3 1020547
20:00−12ююв5119297 0.1 1017390
27 февраля, сб
сб2723:00−10ююв6129398 0.2 1014422
02:00−8ююв81594100 1.1 1009434
05:00−5ю101795100 4.6 1004526
08:000ююз71298100 3.3 1000374
11:00+1зюз61198100 4.5 1000502
14:00+1зюз6109887 0.1 1000584
17:00+1зюз6109592 0.1 1001597
20:00−1зюз61296100 0.3 998529
28 февраля, вс
вс2823:00−1зюз71397100 1.2 998628
02:00−5зсз61092100 0.8 998398
05:00−9з61194100 0.9 1000351
08:00−11зсз5109499 0.1 1002323
11:00−11зсз699399 0.1 1005443
14:00−11зсз5791100 0.0 1008505
17:00−12зсз5791100 0.1 1010473
20:00−15зсз479695 0.0 1011137
1 марта, пн
пн123:00−17сз339779 0.1 101428
02:00−19зсз339820 0.0 101529
05:00−21зсз339813 0.0 101733
08:00−22зсз339913 0.0 101934
11:00−19сз349525 0.0 1020219
14:00−16сз349086 0.0 1022397
17:00−15зсз469293 0.1 1023459
20:00−18сз3697100 0.1 1025111